Regional Weather Roundup
Issued by NWS

Home | Current Version | Previous Version | Text Only | Print | Product List | Glossary On
Versions: 1 2 3 4 5 6 7 8 9 10 11 12 13 14 15 16 17 18 19 20 21 22 23 24 25 26 27
000
ASUS45 KSLC 261210
RWRUT

UTAH REGIONAL WEATHER ROUNDUP
NATIONAL WEATHER SERVICE SALT LAKE CITY UT
600 AM MDT SUN MAR 26 2017

UTZ001>011-023>025-261300-

NORTHERN UTAH

CITY           SKY/WX    TMP DP  RH WIND       PRES   REMARKS
BRIGHAM CITY     N/A     36  33  90 CALM      30.02S
HILL AFB       CLEAR     35  31  87 E10       30.01S WCI  27
LOGAN          CLEAR     33  29  85 CALM      30.03R
OGDEN          CLEAR     33  32  96 S7        30.01S WCI  27
SALT LAKE CITY PTCLDY    35  34  96 S6        30.01F FOG     WCI  30
WENDOVER       CLEAR     37  29  72 N3        30.02R
HEBER CITY     PTCLDY    27  25  93 CALM      30.00S

$$

UTZ011>015-024>027-261300-

CENTRAL/NORTHEAST UTAH

CITY           SKY/WX    TMP DP  RH WIND       PRES   REMARKS
PROVO AIRPORT  PTCLDY    39  36  89 CALM      30.03S
MOAB/CANYONLAN CLEAR     37  32  82 W7        29.90R WCI  32
DELTA          PTCLDY    32  32 100 S6        30.02S WCI  26
PRICE          CLEAR     38  25  59 NW14      29.95R WCI  30
RICHFIELD      CLEAR     30  30 100 CALM      30.05S
ROOSEVELT      CLOUDY    39  32  75 SW5       29.96R
VERNAL         CLOUDY    40  30  67 N5        29.94R

$$

UTZ013>016-019>022-027-261300-

SOUTHERN UTAH

CITY           SKY/WX    TMP DP  RH WIND       PRES   REMARKS
BRYCE CANYON   PTCLDY    26  22  84 NW12      30.00F WCI  16
CEDAR CITY     FOG       29  28  96 CALM      30.01F VSB 3/4
MILFORD        MOCLDY    29  28  96 W7        30.02S WCI  22
ST GEORGE      MOSUNNY   40  35  83 CALM      30.02S
HANKSVILLE     CLEAR     39  28  65 CALM      29.96R
KANAB          CLEAR     30  28  93 CALM      30.05S
BLANDING       PTCLDY    34  34  99 NE7       30.00R WCI  28

$$

REGIONAL REPORTS     COLORADO/ARIZONA

CITY           SKY/WX    TMP DP  RH WIND       PRES   REMARKS
CRAIG, CO      CLOUDY    38  31  76 SW10      29.95R WCI  31
GRAND JUNCTION CLOUDY    47  37  68 N9        29.89R
RIFLE, CO      CLOUDY    43  36  76 W7        29.90R
MONTROSE, CO   CLOUDY    39  37  92 SE10      29.93R WCI  32
CORTEZ, CO     CLOUDY    39  37  92 SE3       29.92F
COLORADO CITY    N/A     30  30 100 SE7       30.04S WCI  23
PAGE, AZ       MOCLDY    47  33  58 W5        29.96R
GRAND CANYON   PTCLDY    23  22  96 CALM      30.03R
KINGMAN, AZ    CLEAR     40  33  76 E6        29.98S
FLAGSTAFF, AZ  CLEAR     31  24  75 CALM      29.99R

$$

REGIONAL REPORTS    NEVADA/IDAHO/WYOMING

CITY           SKY/WX    TMP DP  RH WIND       PRES   REMARKS
LAS VEGAS, NV  PTCLDY    56  37  49 CALM      29.96S
ELY, NY        CLEAR     24  20  84 S8        30.03S WCI  15
ELKO, NV       CLEAR     30  25  81 CALM      29.99F
POCATELLO, ID  CLEAR     27  25  92 NW3       29.99S
BURLEY, ID     CLEAR     33  27  78 SW10      29.98S WCI  25
FORT BRIDGER,    N/A     30  28  91 SW9       30.03R WCI  21
EVANSTON, WY   CLEAR     24  21  88 SW8       30.00S WCI  15
ROCK SPRINGS,  CLEAR     31  27  85 W10       29.97S WCI  22

$$




USA.gov is the U.S. government's official web portal to all federal, state and local government web resources and services.